Tracking 17782 objects as of 25-July-2016
HD Live streaming from Space Station
objects crossing your sky now

ZY 3

Track ZY 3 now!
10-day predictions
ZY 3 is classified as:


NORAD ID: 38046
Int'l Code: 2012-001A
Perigee: 507.2 km
Apogee: 511.0 km
Inclination: 97.3 °
Period: 94.7 minutes
Semi major axis: 6880 km
RCS: 5.391 m2 (large)
Launch date: January 9, 2012
Source: People's Republic of China (PRC)
Launch site: Taiyaun Space Center, China (TSC)
Your satellite tracking list
Your tracking list is empty





NASA's NSSDC Master Catalog

Two Line Element Set (TLE):
1 38046U 12001A   16207.16221764  .00000919  00000-0  44119-4 0  9992
2 38046  97.3257 277.0955 0002785  69.8137  13.9954 15.21280519252236
Source of the keplerian elements: AFSPC

N2YO: 718